Torna al catalogo

NOAA 17 DEB

AttivoSSO
NORAD 48711·DEBRIS·🇺🇸 United States

Lanciato Jun 24, 2002 da Vandenberg Space Force Base

Loading…

Prossimi Passaggi (prossime 24 ore)

TLE

AggiornatoSource: Space-Track

Epoca: Sep 14, 2026, 02:33 UTC

1 48711U 02032AU  26257.10684780  .00003256  00000-0  11478-2 0  9993
2 48711  98.8114 214.5002 0059573 100.9202 259.8692 14.34477632283703

Traccia NOAA 17 DEB in tempo reale con AllMySat

Download on the App Store